Tracking 29892 objects as of 21-Nov-2024
HD Live streaming from Space Station
objects crossing your sky now

COSMOS 397 DEB

Track COSMOS 397 DEB now!
10-day predictions


NORAD ID: 5280
Int'l Code: 1971-015BF
Perigee: 556.3 km
Apogee: 1,678.2 km
Inclination: 65.7 °
Period: 107.5 minutes
Semi major axis: 7488 km
RCS: 0.0288 m2 (small)
Launch date: February 25, 1971
Source: Commonwealth of Independent States (former USSR) (CIS)
Launch site: TYURATAM MISSILE AND SPACE COMPLEX (TTMTR)

Note: This is SATELLITE DEBRIS
Your satellite tracking list
Your tracking list is empty




NASA's NSSDC Master Catalog

Two Line Element Set (TLE):
1 05280U 71015BF  24324.96964573  .00005016  00000-0  17129-2 0  9997
2 05280  65.6552 162.0834 0749107 188.8544 169.8651 13.39772012566149
Source of the keplerian elements: AFSPC